Year,Month,Day,Hour,Minute,Value (Times are PST for temperature in C)
2008,07,18,00,00,12.10
2008,07,18,00,01,12.10
2008,07,18,00,02,12.10
2008,07,18,00,03,12.00
2008,07,18,00,04,12.00
2008,07,18,00,05,12.00
2008,07,18,00,06,12.00
2008,07,18,00,07,12.00
2008,07,18,00,08,12.00
2008,07,18,00,09,12.00
2008,07,18,00,10,12.00
2008,07,18,00,11,12.00
2008,07,18,00,12,12.00
2008,07,18,00,13,12.00
2008,07,18,01,02,11.80
2008,07,18,01,03,11.80
2008,07,18,01,04,11.80
2008,07,18,01,05,11.70
2008,07,18,01,06,11.70
2008,07,18,01,07,11.70
2008,07,18,01,08,11.70
2008,07,18,01,09,11.70
2008,07,18,01,10,11.70
2008,07,18,01,11,11.60
2008,07,18,01,12,11.60
2008,07,18,01,13,11.60
2008,07,18,01,14,11.60
2008,07,18,01,15,11.60
2008,07,18,01,16,11.60
2008,07,18,01,17,11.60
2008,07,18,01,18,11.60
2008,07,18,01,19,11.60
2008,07,18,01,20,11.60
2008,07,18,01,21,11.60
2008,07,18,01,22,11.60
2008,07,18,01,23,11.60
2008,07,18,01,24,11.60
2008,07,18,01,25,11.60
2008,07,18,01,26,11.60
2008,07,18,01,27,11.50
2008,07,18,01,28,11.50
2008,07,18,01,29,11.50
2008,07,18,01,30,11.50
2008,07,18,01,31,11.50
2008,07,18,01,32,11.50
2008,07,18,01,33,11.50
2008,07,18,01,34,11.40
2008,07,18,01,35,11.40
2008,07,18,01,36,11.40
2008,07,18,01,37,11.40
2008,07,18,01,38,11.40
2008,07,18,01,39,11.40
2008,07,18,01,40,11.40
2008,07,18,01,41,11.40
2008,07,18,01,42,11.40
2008,07,18,01,43,11.40
2008,07,18,01,44,11.40
2008,07,18,01,45,11.40
2008,07,18,01,46,11.40
2008,07,18,01,47,11.40
2008,07,18,01,48,11.40
2008,07,18,01,49,11.40
2008,07,18,01,50,11.40
2008,07,18,01,51,11.40
2008,07,18,01,52,11.40
2008,07,18,01,53,11.40
2008,07,18,01,54,11.30
2008,07,18,01,55,11.30
2008,07,18,01,56,11.30
2008,07,18,01,57,11.30
2008,07,18,01,58,11.30
2008,07,18,01,59,11.30
2008,07,18,02,00,11.30
2008,07,18,02,01,11.30
2008,07,18,02,02,11.30
2008,07,18,02,03,11.30
2008,07,18,02,04,11.30
2008,07,18,02,05,11.30
2008,07,18,02,06,11.30
2008,07,18,02,07,11.30
2008,07,18,02,08,11.30
2008,07,18,02,09,11.30
2008,07,18,02,10,11.30
2008,07,18,02,11,11.30
2008,07,18,02,12,11.40
2008,07,18,02,13,11.30
2008,07,18,02,14,11.30
2008,07,18,02,15,11.30
2008,07,18,02,16,11.30
2008,07,18,02,17,11.30
2008,07,18,02,18,11.30
2008,07,18,02,19,11.30
2008,07,18,02,20,11.30
2008,07,18,02,21,11.20
2008,07,18,02,22,11.20
2008,07,18,02,23,11.20
2008,07,18,02,24,11.20
2008,07,18,02,25,11.20
2008,07,18,02,26,11.20
2008,07,18,02,27,11.10
2008,07,18,02,28,11.10
2008,07,18,02,29,11.10
2008,07,18,02,30,11.10
2008,07,18,02,31,11.10
2008,07,18,02,32,11.10
2008,07,18,02,33,11.00
2008,07,18,02,34,11.00
2008,07,18,02,35,11.00
2008,07,18,02,36,11.00
2008,07,18,02,37,10.90
2008,07,18,02,38,10.90
2008,07,18,02,39,10.90
2008,07,18,02,40,10.90
2008,07,18,02,41,10.90
2008,07,18,02,42,10.90
2008,07,18,02,43,11.00
2008,07,18,02,44,11.00
2008,07,18,02,45,11.00
2008,07,18,02,46,11.00
2008,07,18,02,47,11.00
2008,07,18,02,48,11.00
2008,07,18,02,49,11.00
2008,07,18,02,50,11.00
2008,07,18,02,51,11.00
2008,07,18,02,52,10.90
2008,07,18,02,53,10.90
2008,07,18,02,54,10.90
2008,07,18,02,55,10.90
2008,07,18,02,56,10.80
2008,07,18,02,57,10.80
2008,07,18,02,58,10.80
2008,07,18,02,59,10.80
2008,07,18,03,00,10.80
2008,07,18,03,01,10.70
2008,07,18,03,02,10.70
2008,07,18,03,03,10.70
2008,07,18,03,04,10.70
2008,07,18,03,05,10.60
2008,07,18,03,06,10.60
2008,07,18,03,07,10.60
2008,07,18,03,08,10.60
2008,07,18,03,09,10.60
2008,07,18,03,10,10.50
2008,07,18,03,11,10.50
2008,07,18,03,12,10.50
2008,07,18,03,13,10.50
2008,07,18,03,14,10.40
2008,07,18,03,15,10.40
2008,07,18,03,16,10.40
2008,07,18,03,17,10.40
2008,07,18,03,18,10.40
2008,07,18,03,19,10.30
2008,07,18,03,20,10.30
2008,07,18,03,21,10.30
2008,07,18,03,22,10.30
2008,07,18,03,23,10.30
2008,07,18,03,24,10.20
2008,07,18,03,25,10.20
2008,07,18,03,26,10.20
2008,07,18,03,27,10.20
2008,07,18,03,28,10.20
2008,07,18,03,29,10.20
2008,07,18,03,30,10.20
2008,07,18,03,31,10.20
2008,07,18,03,32,10.20
2008,07,18,03,33,10.10
2008,07,18,03,34,10.10
2008,07,18,03,35,10.10
2008,07,18,03,36,10.10
2008,07,18,03,37,10.10
2008,07,18,03,38,10.10
2008,07,18,03,39,10.10
2008,07,18,03,40,10.10
2008,07,18,03,41,10.10
2008,07,18,03,42,10.10
2008,07,18,03,43,10.10
2008,07,18,03,44,10.10
2008,07,18,03,45,10.10
2008,07,18,03,46,10.10
2008,07,18,03,47,10.10
2008,07,18,03,48,10.10
2008,07,18,03,49,10.10
2008,07,18,03,50,10.00
2008,07,18,03,51,10.00
2008,07,18,03,52,10.00
2008,07,18,03,53,10.00
2008,07,18,03,54,9.90
2008,07,18,03,55,9.90
2008,07,18,03,56,9.90
2008,07,18,03,57,9.90
2008,07,18,03,58,9.90
2008,07,18,03,59,9.90
2008,07,18,04,00,9.90
2008,07,18,04,01,9.90
2008,07,18,04,02,9.90
2008,07,18,04,03,9.90
2008,07,18,04,04,9.90
2008,07,18,04,05,9.90
2008,07,18,04,06,9.90
2008,07,18,04,07,9.90
2008,07,18,04,08,9.90
2008,07,18,04,09,9.90
2008,07,18,04,10,9.90
2008,07,18,04,11,9.90
2008,07,18,04,12,9.80
2008,07,18,04,13,9.80
2008,07,18,04,14,9.80
2008,07,18,04,15,9.80
2008,07,18,04,16,9.80
2008,07,18,04,17,9.80
2008,07,18,04,18,9.80
2008,07,18,04,19,9.80
2008,07,18,04,20,9.80
2008,07,18,04,21,9.80
2008,07,18,04,22,9.70
2008,07,18,04,23,9.70
2008,07,18,04,24,9.70
2008,07,18,04,25,9.70
2008,07,18,04,26,9.70
2008,07,18,04,27,9.70
2008,07,18,04,28,9.70
2008,07,18,04,29,9.70
2008,07,18,04,30,9.70
2008,07,18,04,31,9.70
2008,07,18,04,32,9.70
2008,07,18,04,33,9.70
2008,07,18,04,34,9.70
2008,07,18,04,35,9.70
2008,07,18,04,36,9.70
2008,07,18,04,37,9.70
2008,07,18,04,38,9.70
2008,07,18,04,39,9.60
2008,07,18,04,40,9.60
2008,07,18,04,41,9.60
2008,07,18,04,42,9.60
2008,07,18,04,43,9.60
2008,07,18,04,44,9.60
2008,07,18,04,45,9.60
2008,07,18,04,46,9.60
2008,07,18,04,47,9.50
2008,07,18,04,48,9.50
2008,07,18,04,49,9.50
2008,07,18,04,50,9.40
2008,07,18,04,51,9.40
2008,07,18,04,52,9.40
2008,07,18,04,53,9.40
2008,07,18,04,54,9.40
2008,07,18,04,55,9.30
2008,07,18,04,56,9.30
2008,07,18,04,57,9.30
2008,07,18,04,58,9.30
2008,07,18,04,59,9.30
2008,07,18,05,00,9.30
2008,07,18,05,01,9.30
2008,07,18,05,02,9.30
2008,07,18,05,03,9.30
2008,07,18,05,04,9.30
2008,07,18,05,05,9.30
2008,07,18,05,06,9.30
2008,07,18,05,07,9.30
2008,07,18,05,08,9.30
2008,07,18,05,09,9.30
2008,07,18,05,10,9.30
2008,07,18,05,11,9.30
2008,07,18,05,12,9.30
2008,07,18,05,13,9.30
2008,07,18,05,14,9.30
2008,07,18,05,15,9.30
2008,07,18,05,16,9.30
2008,07,18,05,17,9.30
2008,07,18,05,18,9.30
2008,07,18,05,19,9.30
2008,07,18,05,20,9.30
2008,07,18,05,21,9.30
2008,07,18,05,22,9.30
2008,07,18,05,23,9.30
2008,07,18,05,24,9.30
2008,07,18,05,25,9.30
2008,07,18,05,26,9.20
2008,07,18,05,27,9.20
2008,07,18,05,28,9.20
2008,07,18,05,29,9.20
2008,07,18,05,30,9.20
2008,07,18,05,31,9.20
2008,07,18,05,32,9.20
2008,07,18,05,33,9.20
2008,07,18,05,34,9.20
2008,07,18,05,35,9.20
2008,07,18,05,36,9.20
2008,07,18,05,37,9.20
2008,07,18,05,38,9.20
2008,07,18,05,39,9.20
2008,07,18,05,40,9.20
2008,07,18,05,41,9.10
2008,07,18,05,42,9.10
2008,07,18,05,43,9.10
2008,07,18,05,44,9.10
2008,07,18,05,45,9.10
2008,07,18,05,46,9.10
2008,07,18,05,47,9.10
2008,07,18,05,48,9.10
2008,07,18,05,49,9.10
2008,07,18,05,50,9.10
2008,07,18,05,51,9.10
2008,07,18,05,52,9.10
2008,07,18,05,53,9.10
2008,07,18,05,54,9.10
2008,07,18,05,55,9.10
2008,07,18,05,56,9.10
2008,07,18,05,57,9.10
2008,07,18,05,58,9.10
2008,07,18,05,59,9.10
2008,07,18,06,00,9.10
2008,07,18,06,01,9.10
2008,07,18,06,02,9.10
2008,07,18,06,03,9.10
2008,07,18,06,04,9.00
2008,07,18,06,05,9.00
2008,07,18,06,06,9.00
2008,07,18,06,07,9.00
2008,07,18,06,08,9.00
2008,07,18,06,09,9.00
2008,07,18,06,10,9.00
2008,07,18,06,11,9.00
2008,07,18,06,12,9.00
2008,07,18,06,13,9.00
2008,07,18,06,14,9.00
2008,07,18,06,15,8.90
2008,07,18,06,16,8.90
2008,07,18,06,17,8.90
2008,07,18,06,18,8.90
2008,07,18,06,19,8.90
2008,07,18,06,20,8.90
2008,07,18,06,21,8.90
2008,07,18,06,22,9.00
2008,07,18,06,23,9.00
2008,07,18,06,24,9.00
2008,07,18,06,25,9.10
2008,07,18,06,26,9.10
2008,07,18,06,27,9.10
2008,07,18,06,28,9.10
2008,07,18,06,29,9.10
2008,07,18,06,30,9.10
2008,07,18,06,31,9.20
2008,07,18,06,32,9.20
2008,07,18,06,33,9.20
2008,07,18,06,34,9.20
2008,07,18,06,35,9.20
2008,07,18,06,36,9.30
2008,07,18,06,37,9.30
2008,07,18,06,38,9.30
2008,07,18,06,39,9.30
2008,07,18,06,40,9.30
2008,07,18,06,41,9.40
2008,07,18,06,42,9.40
2008,07,18,06,43,9.40
2008,07,18,06,44,9.50
2008,07,18,06,45,9.50
2008,07,18,06,46,9.60
2008,07,18,06,47,9.60
2008,07,18,06,48,9.60
2008,07,18,06,49,9.60
2008,07,18,06,50,9.70
2008,07,18,06,51,9.70
2008,07,18,06,52,9.80
2008,07,18,06,53,9.80
2008,07,18,06,54,9.90
2008,07,18,06,55,10.00
2008,07,18,06,56,10.00
2008,07,18,06,57,10.10
2008,07,18,06,58,10.20
2008,07,18,06,59,10.20
2008,07,18,07,00,10.30
2008,07,18,07,01,10.30
2008,07,18,07,02,10.30
2008,07,18,07,03,10.40
2008,07,18,07,04,10.40
2008,07,18,07,05,10.50
2008,07,18,07,06,10.60
2008,07,18,07,07,10.60
2008,07,18,07,08,10.70
2008,07,18,07,09,10.70
2008,07,18,07,10,10.80
2008,07,18,07,11,10.90
2008,07,18,07,12,11.00
2008,07,18,07,13,11.10
2008,07,18,07,14,11.20
2008,07,18,07,15,11.20
2008,07,18,07,16,11.30
2008,07,18,07,17,11.40
2008,07,18,07,18,11.50
2008,07,18,07,19,11.60
2008,07,18,07,20,11.80
2008,07,18,07,21,11.90
2008,07,18,07,22,12.00
2008,07,18,07,23,12.10
2008,07,18,07,24,12.20
2008,07,18,07,25,12.30
2008,07,18,07,26,12.40
2008,07,18,07,27,12.50
2008,07,18,07,28,12.60
2008,07,18,07,29,12.70
2008,07,18,07,30,12.80
2008,07,18,07,31,12.90
2008,07,18,07,32,13.00
2008,07,18,07,33,13.10
2008,07,18,07,34,13.20
2008,07,18,07,35,13.30
2008,07,18,07,36,13.40
2008,07,18,07,37,13.60
2008,07,18,07,38,13.70
2008,07,18,07,39,13.80
2008,07,18,07,40,14.00
2008,07,18,07,41,14.10
2008,07,18,07,42,14.20
2008,07,18,07,43,14.20
2008,07,18,07,44,14.30
2008,07,18,07,45,14.30
2008,07,18,07,46,14.40
2008,07,18,07,47,14.40
2008,07,18,07,48,14.40
2008,07,18,07,49,14.50
2008,07,18,07,50,14.50
2008,07,18,07,51,14.60
2008,07,18,07,52,14.60
2008,07,18,07,53,14.70
2008,07,18,07,54,14.70
2008,07,18,07,55,14.80
2008,07,18,07,56,14.90
2008,07,18,07,57,15.00
2008,07,18,07,58,15.00
2008,07,18,07,59,15.00
2008,07,18,08,00,15.00
2008,07,18,08,01,15.10
2008,07,18,08,02,15.20
2008,07,18,08,03,15.30
2008,07,18,08,04,15.30
2008,07,18,08,05,15.40
2008,07,18,08,06,15.40
2008,07,18,08,07,15.50
2008,07,18,08,08,15.50
2008,07,18,08,09,15.60
2008,07,18,08,10,15.70
2008,07,18,08,11,15.80
2008,07,18,08,12,15.80
2008,07,18,08,13,15.90
2008,07,18,08,14,15.90
2008,07,18,08,15,16.00
2008,07,18,08,16,16.00
2008,07,18,08,17,16.10
2008,07,18,08,18,16.20
2008,07,18,08,19,16.20
2008,07,18,08,20,16.30
2008,07,18,08,21,16.30
2008,07,18,08,22,16.40
2008,07,18,08,23,16.50
2008,07,18,08,24,16.50
2008,07,18,08,25,16.60
2008,07,18,08,26,16.60
2008,07,18,08,27,16.60
2008,07,18,08,28,16.60
2008,07,18,08,29,16.60
2008,07,18,08,30,16.60
2008,07,18,08,31,16.60
2008,07,18,08,32,16.60
2008,07,18,08,33,16.60
2008,07,18,08,34,16.60
2008,07,18,08,35,16.70
2008,07,18,08,36,16.70
2008,07,18,08,37,16.80
2008,07,18,08,38,16.80
2008,07,18,08,39,16.80
2008,07,18,08,40,16.90
2008,07,18,08,41,16.90
2008,07,18,08,42,16.80
2008,07,18,08,43,16.80
2008,07,18,08,44,16.70
2008,07,18,08,45,16.70
2008,07,18,08,46,16.70
2008,07,18,08,47,16.70
2008,07,18,08,48,16.80
2008,07,18,08,49,16.80
2008,07,18,08,50,16.90
2008,07,18,08,51,16.90
2008,07,18,08,52,17.00
2008,07,18,08,53,17.10
2008,07,18,08,54,17.10
2008,07,18,08,55,17.10
2008,07,18,08,56,17.10
2008,07,18,08,57,17.10
2008,07,18,08,58,17.10
2008,07,18,08,59,17.00
2008,07,18,09,00,17.00
2008,07,18,09,01,16.90
2008,07,18,09,02,16.90
2008,07,18,09,03,16.90
2008,07,18,09,04,16.90
2008,07,18,09,05,16.90
2008,07,18,09,06,17.00
2008,07,18,09,07,17.00
2008,07,18,09,08,17.00
2008,07,18,09,09,17.00
2008,07,18,09,10,17.00
2008,07,18,09,11,17.00
2008,07,18,09,12,17.00
2008,07,18,09,13,17.00
2008,07,18,09,14,17.10
2008,07,18,09,15,17.10
2008,07,18,09,16,17.20
2008,07,18,09,17,17.20
2008,07,18,09,18,17.20
2008,07,18,09,19,17.20
2008,07,18,09,20,17.20
2008,07,18,09,21,17.30
2008,07,18,09,22,17.40
2008,07,18,09,23,17.50
2008,07,18,09,24,17.60
2008,07,18,09,25,17.50
2008,07,18,09,26,17.40
2008,07,18,09,27,17.40
2008,07,18,09,28,17.40
2008,07,18,09,29,17.40
2008,07,18,09,30,17.40
2008,07,18,09,31,17.50
2008,07,18,09,32,17.40
2008,07,18,09,33,17.30
2008,07,18,09,34,17.30
2008,07,18,09,35,17.30
2008,07,18,09,36,17.20
2008,07,18,09,37,17.10
2008,07,18,09,38,17.10
2008,07,18,09,39,17.10
2008,07,18,09,40,17.10
2008,07,18,09,41,17.20
2008,07,18,09,42,17.20
2008,07,18,09,43,17.20
2008,07,18,09,44,17.20
2008,07,18,09,45,17.10
2008,07,18,09,46,17.00
2008,07,18,09,47,17.00
2008,07,18,09,48,16.90
2008,07,18,09,49,16.90
2008,07,18,09,50,16.80
2008,07,18,09,51,16.80
2008,07,18,09,52,16.80
2008,07,18,09,53,16.70
2008,07,18,09,54,16.60
2008,07,18,09,55,16.50
2008,07,18,09,56,16.40
2008,07,18,09,57,16.40
2008,07,18,09,58,16.40
2008,07,18,09,59,16.30
2008,07,18,10,00,16.30
2008,07,18,10,01,16.40
2008,07,18,10,02,16.50
2008,07,18,10,03,16.50
2008,07,18,10,04,16.50
2008,07,18,10,05,16.60
2008,07,18,10,06,16.70
2008,07,18,10,07,16.80
2008,07,18,10,08,16.90
2008,07,18,10,09,17.00
2008,07,18,10,10,17.00
2008,07,18,10,11,17.00
2008,07,18,10,12,16.90
2008,07,18,10,13,16.90
2008,07,18,10,14,16.90
2008,07,18,10,15,16.90
2008,07,18,10,16,16.90
2008,07,18,10,17,16.90
2008,07,18,10,18,16.80
2008,07,18,10,19,16.80
2008,07,18,10,20,16.80
2008,07,18,10,21,16.80
2008,07,18,10,22,16.80
2008,07,18,10,23,16.80
2008,07,18,10,24,16.80
2008,07,18,10,25,17.00
2008,07,18,10,26,17.00
2008,07,18,10,27,17.10
2008,07,18,10,28,17.10
2008,07,18,10,29,17.10
2008,07,18,10,30,17.10
2008,07,18,10,31,17.10
2008,07,18,10,32,17.10
2008,07,18,10,33,17.10
2008,07,18,10,34,17.00
2008,07,18,10,35,16.80
2008,07,18,10,36,16.80
2008,07,18,10,37,16.60
2008,07,18,10,38,16.40
2008,07,18,10,39,16.30
2008,07,18,10,40,16.20
2008,07,18,10,41,16.00
2008,07,18,10,42,15.90
2008,07,18,10,43,15.90
2008,07,18,10,44,15.90
2008,07,18,10,45,16.00
2008,07,18,10,46,16.10
2008,07,18,10,47,16.10
2008,07,18,10,48,16.20
2008,07,18,10,49,16.20
2008,07,18,10,50,16.10
2008,07,18,10,51,15.90
2008,07,18,10,52,15.80
2008,07,18,10,53,15.70
2008,07,18,10,54,15.60
2008,07,18,10,55,15.60
2008,07,18,10,56,15.70
2008,07,18,10,57,15.70
2008,07,18,10,58,15.70
2008,07,18,10,59,15.60
2008,07,18,11,00,15.60
2008,07,18,11,01,15.60
2008,07,18,11,02,15.70
2008,07,18,11,03,15.70
2008,07,18,11,04,15.80
2008,07,18,11,05,16.00
2008,07,18,11,06,16.00
2008,07,18,11,07,16.10
2008,07,18,11,08,16.10
2008,07,18,11,09,16.10
2008,07,18,11,10,16.20
2008,07,18,11,11,16.20
2008,07,18,11,12,16.10
2008,07,18,11,13,16.10
2008,07,18,11,14,16.10
2008,07,18,11,15,16.10
2008,07,18,11,16,16.10
2008,07,18,11,17,16.10
2008,07,18,11,18,16.10
2008,07,18,11,19,16.00
2008,07,18,11,20,15.90
2008,07,18,11,21,15.90
2008,07,18,11,22,15.80
2008,07,18,11,23,15.80
2008,07,18,11,24,15.90
2008,07,18,11,25,16.00
2008,07,18,11,26,16.00
2008,07,18,11,27,16.00
2008,07,18,11,28,15.80
2008,07,18,11,29,15.80
2008,07,18,11,30,15.70
2008,07,18,11,31,15.70
2008,07,18,11,32,15.70
2008,07,18,11,33,15.60
2008,07,18,11,34,15.60
2008,07,18,11,35,15.60
2008,07,18,11,36,15.60
2008,07,18,11,37,15.70
2008,07,18,11,38,15.70
2008,07,18,11,39,15.60
2008,07,18,11,40,15.50
2008,07,18,11,41,15.40
2008,07,18,11,42,15.40
2008,07,18,11,43,15.30
2008,07,18,11,44,15.30
2008,07,18,11,45,15.40
2008,07,18,11,46,15.50
2008,07,18,11,47,15.60
2008,07,18,11,48,15.70
2008,07,18,11,49,15.80
2008,07,18,11,50,16.00
2008,07,18,11,51,16.10
2008,07,18,11,52,16.20
2008,07,18,11,53,16.30
2008,07,18,11,54,16.40
2008,07,18,11,55,16.40
2008,07,18,11,56,16.40
2008,07,18,11,57,16.40
2008,07,18,11,58,16.50
2008,07,18,11,59,16.60
2008,07,18,12,00,16.70
2008,07,18,12,01,16.80
2008,07,18,12,02,16.80
2008,07,18,12,03,16.80
2008,07,18,12,04,16.70
2008,07,18,12,05,16.60
2008,07,18,12,06,16.50
2008,07,18,12,07,16.40
2008,07,18,12,08,16.30
2008,07,18,12,09,16.30
2008,07,18,12,10,16.30
2008,07,18,12,11,16.30
2008,07,18,12,12,16.20
2008,07,18,12,13,16.20
2008,07,18,12,14,16.20
2008,07,18,12,15,16.20
2008,07,18,12,16,16.30
2008,07,18,12,17,16.30
2008,07,18,12,18,16.40
2008,07,18,12,19,16.40
2008,07,18,12,20,16.40
2008,07,18,12,21,16.30
2008,07,18,12,22,16.20
2008,07,18,12,23,16.20
2008,07,18,12,24,16.20
2008,07,18,12,25,16.20
2008,07,18,12,26,16.20
2008,07,18,12,27,16.20
2008,07,18,12,28,16.10
2008,07,18,12,29,16.10
2008,07,18,12,30,16.10
2008,07,18,12,31,16.00
2008,07,18,12,32,16.00
2008,07,18,12,33,16.00
2008,07,18,12,34,16.00
2008,07,18,12,35,16.00
2008,07,18,12,36,16.00
2008,07,18,12,37,16.10
2008,07,18,12,38,16.20
2008,07,18,12,39,16.20
2008,07,18,12,40,16.10
2008,07,18,12,41,16.00
2008,07,18,12,42,15.90
2008,07,18,12,43,15.90
2008,07,18,12,44,15.90
2008,07,18,12,45,16.00
2008,07,18,12,46,16.20
2008,07,18,12,47,16.30
2008,07,18,12,48,16.30
2008,07,18,12,49,16.30
2008,07,18,12,50,16.20
2008,07,18,12,51,16.20
2008,07,18,12,52,16.20
2008,07,18,12,53,16.20
2008,07,18,12,54,16.20
2008,07,18,12,55,16.10
2008,07,18,12,56,15.90
2008,07,18,12,57,15.80
2008,07,18,12,58,15.80
2008,07,18,12,59,15.80
2008,07,18,13,00,15.80
2008,07,18,13,01,15.90
2008,07,18,13,02,16.00
2008,07,18,13,03,16.10
2008,07,18,13,04,16.10
2008,07,18,13,05,16.10
2008,07,18,13,06,16.10
2008,07,18,13,07,16.10
2008,07,18,13,08,16.10
2008,07,18,13,09,16.30
2008,07,18,13,10,16.20
2008,07,18,13,11,16.20
2008,07,18,13,12,16.20
2008,07,18,13,13,16.20
2008,07,18,13,14,16.30
2008,07,18,13,15,16.30
2008,07,18,13,16,16.40
2008,07,18,13,17,16.30
2008,07,18,13,18,16.20
2008,07,18,13,19,16.30
2008,07,18,13,20,16.30
2008,07,18,13,21,16.40
2008,07,18,13,22,16.40
2008,07,18,13,23,16.50
2008,07,18,13,24,16.60
2008,07,18,13,25,16.70
2008,07,18,13,26,16.70
2008,07,18,13,27,16.60
2008,07,18,13,28,16.50
2008,07,18,13,29,16.50
2008,07,18,13,30,16.50
2008,07,18,13,31,16.50
2008,07,18,13,32,16.70
2008,07,18,13,33,16.80
2008,07,18,13,34,17.00
2008,07,18,13,35,17.10
2008,07,18,13,36,17.20
2008,07,18,13,37,17.30
2008,07,18,13,38,17.20
2008,07,18,13,39,17.20
2008,07,18,13,40,17.20
2008,07,18,13,41,17.10
2008,07,18,13,42,17.10
2008,07,18,13,43,16.90
2008,07,18,13,44,16.90
2008,07,18,13,45,16.90
2008,07,18,13,46,17.00
2008,07,18,13,47,17.20
2008,07,18,13,48,17.20
2008,07,18,13,49,17.20
2008,07,18,13,50,17.30
2008,07,18,13,51,17.30
2008,07,18,13,52,17.30
2008,07,18,13,53,17.30
2008,07,18,13,54,17.20
2008,07,18,13,55,17.20
2008,07,18,13,56,17.10
2008,07,18,13,57,17.00
2008,07,18,13,58,16.90
2008,07,18,13,59,16.90
2008,07,18,14,00,16.90
2008,07,18,14,01,16.90
2008,07,18,14,02,16.90
2008,07,18,14,03,16.90
2008,07,18,14,04,17.00
2008,07,18,14,05,17.20
2008,07,18,14,06,17.30
2008,07,18,14,07,17.40
2008,07,18,14,08,17.30
2008,07,18,14,09,17.20
2008,07,18,14,10,17.20
2008,07,18,14,11,17.20
2008,07,18,14,12,17.40
2008,07,18,14,13,17.40
2008,07,18,14,14,17.40
2008,07,18,14,15,17.50
2008,07,18,14,16,17.50
2008,07,18,14,17,17.70
2008,07,18,14,18,17.90
2008,07,18,14,19,18.00
2008,07,18,14,20,18.10
2008,07,18,14,21,18.10
2008,07,18,14,22,18.10
2008,07,18,14,23,18.20
2008,07,18,14,24,18.20
2008,07,18,14,25,18.20
2008,07,18,14,26,18.20
2008,07,18,14,27,18.30
2008,07,18,14,28,18.40
2008,07,18,14,29,18.50
2008,07,18,14,30,18.60
2008,07,18,14,31,18.60
2008,07,18,14,32,18.60
2008,07,18,14,33,18.70
2008,07,18,14,34,18.90
2008,07,18,14,35,19.00
2008,07,18,14,36,19.10
2008,07,18,14,37,19.10
2008,07,18,14,38,19.10
2008,07,18,14,39,19.10
2008,07,18,14,40,19.20
2008,07,18,14,41,19.20
2008,07,18,14,42,19.00
2008,07,18,14,43,18.80
2008,07,18,14,44,18.70
2008,07,18,14,45,18.60
2008,07,18,14,46,18.60
2008,07,18,14,47,18.60
2008,07,18,14,48,18.50
2008,07,18,14,49,18.40
2008,07,18,14,50,18.30
2008,07,18,14,51,18.30
2008,07,18,14,52,18.40
2008,07,18,14,53,18.50
2008,07,18,14,54,18.60
2008,07,18,14,55,18.70
2008,07,18,14,56,18.80
2008,07,18,14,57,18.70
2008,07,18,14,58,18.60
2008,07,18,14,59,18.60
2008,07,18,15,00,18.70
2008,07,18,15,01,18.60
2008,07,18,15,02,18.50
2008,07,18,15,03,18.50
2008,07,18,15,04,18.40
2008,07,18,15,05,18.30
2008,07,18,15,06,18.20
2008,07,18,15,07,18.20
2008,07,18,15,08,18.20
2008,07,18,15,09,18.10
2008,07,18,15,10,18.10
2008,07,18,15,11,18.10
2008,07,18,15,12,18.00
2008,07,18,15,13,18.00
2008,07,18,15,14,17.90
2008,07,18,15,15,17.80
2008,07,18,15,16,17.80
2008,07,18,15,17,17.90
2008,07,18,15,18,18.00
2008,07,18,15,19,18.10
2008,07,18,15,20,18.10
2008,07,18,15,21,18.00
2008,07,18,15,22,17.80
2008,07,18,15,23,17.60
2008,07,18,15,24,17.50
2008,07,18,15,25,17.50
2008,07,18,15,26,17.50
2008,07,18,15,27,17.60
2008,07,18,15,28,17.70
2008,07,18,15,29,17.80
2008,07,18,15,30,17.90
2008,07,18,15,31,17.80
2008,07,18,15,32,17.70
2008,07,18,15,33,17.70
2008,07,18,15,34,17.70
2008,07,18,15,35,17.80
2008,07,18,15,36,17.80
2008,07,18,15,37,17.90
2008,07,18,15,38,18.00
2008,07,18,15,39,18.00
2008,07,18,15,40,17.90
2008,07,18,15,41,17.90
2008,07,18,15,42,17.90
2008,07,18,15,43,17.80
2008,07,18,15,44,17.80
2008,07,18,15,45,17.90
2008,07,18,15,46,17.90
2008,07,18,15,47,17.90
2008,07,18,15,48,17.80
2008,07,18,15,49,17.70
2008,07,18,15,50,17.60
2008,07,18,15,51,17.60
2008,07,18,15,52,17.60
2008,07,18,15,53,17.60
2008,07,18,15,54,17.70
2008,07,18,15,55,17.80
2008,07,18,15,56,18.00
2008,07,18,15,57,18.00
2008,07,18,15,58,18.00
2008,07,18,15,59,17.90
2008,07,18,16,00,17.80
2008,07,18,16,01,17.80
2008,07,18,16,02,17.70
2008,07,18,16,03,17.60
2008,07,18,16,04,17.70
2008,07,18,16,05,17.70
2008,07,18,16,06,17.80
2008,07,18,16,07,18.00
2008,07,18,16,08,18.00
2008,07,18,16,09,18.00
2008,07,18,16,10,18.00
2008,07,18,16,11,17.90
2008,07,18,16,12,17.90
2008,07,18,16,13,17.80
2008,07,18,16,14,17.70
2008,07,18,16,15,17.70
2008,07,18,16,16,17.70
2008,07,18,16,17,17.70
2008,07,18,16,18,17.80
2008,07,18,16,19,17.80
2008,07,18,16,20,17.90
2008,07,18,16,21,17.90
2008,07,18,16,22,17.90
2008,07,18,16,23,17.90
2008,07,18,16,24,17.90
2008,07,18,16,25,18.00
2008,07,18,16,26,18.20
2008,07,18,16,27,18.30
2008,07,18,16,28,18.30
2008,07,18,16,29,18.30
2008,07,18,16,30,18.30
2008,07,18,16,31,18.40
2008,07,18,16,32,18.40
2008,07,18,16,33,18.40
2008,07,18,16,34,18.30
2008,07,18,16,35,18.30
2008,07,18,16,36,18.30
2008,07,18,16,37,18.30
2008,07,18,16,38,18.30
2008,07,18,16,39,18.20
2008,07,18,16,40,18.20
2008,07,18,16,41,18.20
2008,07,18,16,42,18.20
2008,07,18,16,43,18.20
2008,07,18,16,44,18.20
2008,07,18,16,45,18.10
2008,07,18,16,46,18.10
2008,07,18,16,47,18.10
2008,07,18,16,48,18.10
2008,07,18,16,49,18.30
2008,07,18,16,50,18.30
2008,07,18,16,51,18.50
2008,07,18,16,52,18.50
2008,07,18,16,53,18.50
2008,07,18,16,54,18.60
2008,07,18,16,55,18.70
2008,07,18,16,56,18.70
2008,07,18,16,57,18.80
2008,07,18,16,58,18.80
2008,07,18,16,59,18.70
2008,07,18,17,00,18.60
2008,07,18,17,01,18.40
2008,07,18,17,02,18.20
2008,07,18,17,03,18.20
2008,07,18,17,04,18.10
2008,07,18,17,05,18.00
2008,07,18,17,06,18.00
2008,07,18,17,07,18.00
2008,07,18,17,08,18.00
2008,07,18,17,09,17.90
2008,07,18,17,10,17.90
2008,07,18,17,11,17.90
2008,07,18,17,12,17.80
2008,07,18,17,13,17.80
2008,07,18,17,14,17.80
2008,07,18,17,15,17.70
2008,07,18,17,16,17.70
2008,07,18,17,17,17.70
2008,07,18,17,18,17.70
2008,07,18,17,19,17.80
2008,07,18,17,20,17.80
2008,07,18,17,21,17.80
2008,07,18,17,22,17.90
2008,07,18,17,23,18.00
2008,07,18,17,24,18.10
2008,07,18,17,25,18.00
2008,07,18,17,26,17.90
2008,07,18,17,27,17.80
2008,07,18,17,28,17.80
2008,07,18,17,29,17.90
2008,07,18,17,30,18.00
2008,07,18,17,31,17.90
2008,07,18,17,32,17.90
2008,07,18,17,33,17.90
2008,07,18,17,34,17.80
2008,07,18,17,35,17.80
2008,07,18,17,36,17.90
2008,07,18,17,37,17.90
2008,07,18,17,38,17.90
2008,07,18,17,39,17.90
2008,07,18,17,40,17.80
2008,07,18,17,41,17.70
2008,07,18,17,42,17.60
2008,07,18,17,43,17.60
2008,07,18,17,44,17.60
2008,07,18,17,45,17.60
2008,07,18,17,46,17.70
2008,07,18,17,47,17.70
2008,07,18,17,48,17.70
2008,07,18,17,49,17.70
2008,07,18,17,50,17.70
2008,07,18,17,51,17.80
2008,07,18,17,52,17.80
2008,07,18,17,53,18.00
2008,07,18,17,54,18.00
2008,07,18,17,55,18.10
2008,07,18,17,56,18.30
2008,07,18,17,57,18.30
2008,07,18,17,58,18.30
2008,07,18,17,59,18.40
2008,07,18,18,00,18.40
2008,07,18,18,01,18.40
2008,07,18,18,02,18.50
2008,07,18,18,03,18.60
2008,07,18,18,04,18.60
2008,07,18,18,05,18.60
2008,07,18,18,06,18.60
2008,07,18,18,07,18.50
2008,07,18,18,08,18.50
2008,07,18,18,09,18.50
2008,07,18,18,10,18.40
2008,07,18,18,11,18.30
2008,07,18,18,12,18.20
2008,07,18,18,13,18.00
2008,07,18,18,14,18.00
2008,07,18,18,15,18.00